Regional Weather Roundup
Issued by NWS Wakefield, VA

Home | Current Version | Previous Version | Text Only | Print | Product List | Glossary Off
Versions: 1 2 3 4 5 6 7 8 9 10 11 12 13 14 15 16 17 18 19 20 21 22 23 24 25 26 27 28

000
ASUS41 KAKQ 250915
RWRAKQ

REGIONAL WEATHER ROUNDUP
NATIONAL WEATHER SERVICE WAKEFIELD VA
500 AM EDT SUN SEP 25 2016

Note: "fair" indicates few or no clouds below 12,000 feet with no
significant weather and/or obstructions to visibility. * = Denotes
station may not report precipitation (e.g., rain,snow,etc.),
thunder or fog.

VAZ042-051-052>054-056-251000-
NORTHERN VIRGINIA

CITY           SKY/WX    TMP DP  RH WIND       PRES   REMARKS
WASH NATIONAL  PTCLDY    61  54  77 NE12      30.17S
DULLES         PTCLDY    57  52  83 N6        30.18R
FORT BELVOIR   PTCLDY    61  59  94 CALM      30.17R
QUANTICO         N/A     64  61  90 NW3       30.17R
FREDERICKSBRG* CLOUDY    65  65 100 CALM      30.15R
STAFFORD*      CLOUDY    64  62  95 N3        30.20R
WARRENTON      CLOUDY    63  58  83 N5        30.17R
CULPEPER*      CLOUDY    64  63  96 CALM      30.18R
MANASSAS*      CLOUDY    61  59  94 N7        30.17R
LEESBURG*      CLEAR     55  50  82 N5        30.19S
WINCHESTER     CLEAR     54  45  71 N3        30.18S
FRONT ROYAL*   CLOUDY    55  52  88 CALM      30.17S
LURAY*         CLOUDY    61  59  94 N8        30.17R
$$

VAZ048-049-060>072-079>083-251000-
CENTRAL AND SOUTH CENTRAL VIRGINIA

CITY           SKY/WX    TMP DP  RH WIND       PRES   REMARKS
RICHMOND       CLOUDY    66  61  84 N6        30.14R
CHESTERFIELD*  CLOUDY    66  52  59 NE5       30.16R
PETERSBURG*    CLOUDY    68  63  84 NE6       30.14R
HANOVER        CLOUDY    65  62  90 CALM      30.16S
TAPPAHANNOCK*  MOCLDY    63  63 100 CALM      30.16R
QUINTON*       CLOUDY    65  63  91 NW3       30.14R
CHARLOTTSVILLE CLOUDY    68  62  81 NE3       30.16S
GORDONSVILLE*  CLOUDY    66  64  94 CALM      30.16R
ORANGE*          N/A     66  66 100 CALM      30.18R
LOUISA*        CLOUDY    70  66  88 CALM      30.15S
BUMPASS*       CLOUDY    64  64  97 CALM      30.16R
FARMVILLE*     CLOUDY    69  67  96 N3        30.14R FOG
CREWE*         CLOUDY    66  66 100 CALM      30.14R
FORT PICKETT*  CLOUDY    66  66  97 NE6       30.14R
CHASE CITY*    CLOUDY    68  67  94 CALM      30.13S
CLARKSVILLE*   CLOUDY    68  68 100 E3        30.12S
SOUTH HILL*    CLOUDY    67  66  96 CALM      30.18S
LAWRENCEVILLE* CLOUDY    67  67  98 CALM      30.13R
EMPORIA*       CLOUDY    68  64  88 N5        30.14R
$$

VAZ088>098-251000-
SOUTHEAST VIRGINIA

CITY           SKY/WX    TMP DP  RH WIND       PRES   REMARKS
NORFOLK        CLOUDY    69  62  78 NE10      30.11R
VIRGINIA BEACH CLOUDY    68  61  78 NE6       30.10R
NORFOLK NAVAL  CLOUDY    70  64  81 NE10      30.13R
WEST POINT*    CLOUDY    66  62  87 N3        30.16R
SALUDA*        CLOUDY    67  60  76 CALM      30.13R
NEWPORT NEWS   CLOUDY    68  63  84 NE6       30.13R
LANGLEY AFB    CLOUDY    68  63  83 NE13      30.12R
FORT EUSTIS    CLOUDY    68  64  86 N3        30.11R
WILLIAMSBURG*  CLEAR     66  66 100 CALM      30.14R
HR EXEC AP*    CLOUDY    70  64  83 NE3       30.13R
FRANKLIN*      CLOUDY    68  65  91 N3        30.12S
US460-WAKEFLD  CLOUDY    67  63  87 CALM      30.13R
$$

VAZ020-022-025-037-045-251000-
WEST CENTRAL AND SOUTHWEST VIRGINIA

CITY           SKY/WX    TMP DP  RH WIND       PRES   REMARKS
STAUNTON*      CLOUDY    64  58  78 NE5       30.19R
WAYNESBORO*    CLOUDY    63  61  96 CALM      30.17S
HOT SPRINGS VA CLOUDY    60  60 100 CALM      30.22S FOG
LYNCHBURG      CLOUDY    67  64  90 E3        30.17R
DANVILLE       CLOUDY    70  65  84 NE7       30.13R
SOUTH BOSTON*  CLOUDY    69  67  95 NE3       30.13S
MARTINSVILLE   CLOUDY    69  64  83 NE3       30.16S
ROANOKE        CLOUDY    69  64  84 SE12      30.17R
BLACKSBURG     CLOUDY    68  67  97 SE5       30.21S FOG
DUBLIN*        CLOUDY    66  65  96 CALM      30.19S
MARION*        CLEAR     59  58  96 CALM      30.22R FOG
HILLSVILLE*    CLEAR     63  63 100 CALM      30.19S FOG
RICHLANDS*     FAIR      64  62  93 CALM      30.19R
WISE*          CLEAR     66  61  82 CALM      30.20S
ABINGDON*      CLEAR     64  61  90 CALM      30.16S
$$

MDZ021>025-VAZ099-100-251000-
SOUTHERN MARYLAND AND THE DELMARVA PENINSULA

CITY           SKY/WX    TMP DP  RH WIND       PRES   REMARKS
PATUXENT RIVER CLEAR     60  55  83 NE5       30.15R
BAY BRIDGE APT CLEAR     59  48  67 MISG      30.17R
LEONARDTOWN    CLEAR     54  54 100 CALM      30.17R
DOVER          CLEAR     53  53 100 N8        30.15R FOG
GEORGETOWN     CLEAR     57  55  93 NW3       30.15R
EASTON         NOT AVBL
CAMBRIDGE      PTCLDY    52  52 100 CALM      30.15R
SALISBURY      PTCLDY    55  55 100 CALM      30.14R
OCEAN CITY     CLEAR     57  54  89 NW5       30.13R
WALLOPS ISLAND CLEAR     58  58 100 NW5       30.14R
ACCOMACK*      CLOUDY    63  58  84 NE5       30.13R
$$

NCZ012>017-030>032-251000-
NORTH CENTRAL AND EASTERN NORTH CAROLINA

CITY           SKY/WX    TMP DP  RH WIND       PRES   REMARKS
ROANOKE RAPIDS CLOUDY    68  66  94 NE5       30.11S
RALEIGH        CLOUDY    72  69  90 E10       30.10S
ELIZABETH CITY CLOUDY    71  65  81 N9        30.10R
AHOSKIE*       NOT AVBL
EDENTON*       CLOUDY    72  72 100 N3        30.11R
CURRITUCK*     CLOUDY    72  64  76 N10       30.11R
KILL DEVIL HLS NOT AVBL
MANTEO         CLOUDY    72  66  82 NE10      30.08S
CAPE HATTERAS  CLOUDY    74  68  81 NE8       30.06R
TARBORO*       CLOUDY    71  68  90 NE3       30.11S
GOLDSBORO      PTCLDY    73  73 100 NE9       30.07S
WASHINGTON     CLOUDY    71  67  89 NE5       30.10R
GREENVILLE     CLOUDY    72  70  94 NE5       30.11S
NEW BERN       CLOUDY    73  69  87 NE7       30.09R
WILMINGTON     PTCLDY    70  69  97 NE8       30.05S
$$

VAZ048-251000-
ELSEWHERE

CITY           SKY/WX    TMP DP  RH WIND       PRES   REMARKS
HARRISBURG PA  CLEAR     52  46  80 N5        30.20R
BALTIMORE      PTCLDY    51  48  89 CALM      30.18R
ANNAPOLIS      CLEAR     62  55  77 N3        30.16R
ANDREWS AFB    CLEAR     55  53  94 NE6       30.16R
PHILADELPHIA   CLEAR     56  41  57 N10       30.18R
HENDERSON NC   CLOUDY    66  65  96 E5        30.12S FOG
GREENSBORO     CLOUDY    72  70  93 NE9       30.11R FOG
ROCKY MOUNT    CLOUDY    71  69  93 NE7       30.10S
$$

VAZ100-251000-
MARINE

STATION/POSITION TIME  TEMP    WIND        PRES    WAVE   SWELL
                       AIR SEA DIR/SP/G            HT/PER HT/PER
                 (UTC) (F)     (DEG/KT/KT) (MB)    (FT/S) (FT/S)
BRANDYWINE LGT   0800   64      30/ 16/ 18   N/A
CAPE MAY NJ      0800   60 73   20/  3/  5 1019.8S
LEWES DE         0800   63 72  300/ 11/ 12 1020.0S
OCEAN-CITY-INLET 0800   62 73  350/  5/  6 1020.3S
WACHAPREAGUE VA  0800   63 76  330/  3/  5 1020.0S
THOMAS POINT MD  0900   64 76   40/ 16/ 18 1022.4R
GOOSES REEF MD   0800   68 75   50/ 10/ 14 1021.2S   1
COVE POINT MD    0800   65      70/  4/  7 1021.2F
SOLOMONS ISLAND  0800   65 76   30/  4/  6   N/A
BISHOPS HEAD MD  0800   62 73  340/  4/  5 1020.6S
PINEY POINT MD   0800           40/  4/  5   N/A
POTOMAC MD       0800   68 77   40/  8/ 10 1019.4F   1
CAMBRIDGE MD     0800   64 76  360/  5/  6 1019.9S
LEWISETTA VA     0800   68 75   70/  7/ 12 1019.8F
RAPPAHANNOCK LGT 0800           40/ 11/ 13 1020.3S
STINGRAY PT      0800   70 77  350/ 10/ 14 1020.1F   2/ 3
YORK RVR RNG VA  0800   70      60/ 13/ 15 1019.2R
YORKTOWN VA      0800   70 77   50/ 10/ 12 1019.2F
JAMESTOWN VA     0800   68 78  360/  2/  4   N/A     0
DOMINION TERM VA 0800   70      40/  3/  5 1019.4S
KIPTOPEKE VA     0800      76   30/  5/  7   N/A
CHES BAY BRIDGE  0800   70 77   30/ 14/ 17 1018.9F
CAPE HENRY VA    0800   70      50/ 15/ 18   N/A
WILLOUBY STN VA  0800   70      40/ 11/ 13   N/A
CAPE HENRY BUOY  0812      76                N/A     5/11   2/11
1ST LANDING BUOY 0800   71 76   70/ 14/ 17 1019.0S   3/ 3
CAPE CHARLES BUO 0826      77                N/A     5/11   2/11
OFFSHORE WE BUOY 0821      76                N/A     6/10   2/11
64NM E OF VA BCH 0850   71 74   20/ 16/ 19 1018.2R   7/10   5/10
DUCK PIER NC     0800   73 78   40/ 14/ 16 1018.0S
44056 DUCK FRF   0811      77                N/A     5/11   2/11
OREGON INLET NC  0800   73 78   30/ 12/ 16 1017.8F
HATTERAS NC      0800   75 81   40/  9/ 13 1017.5F
DIAMOND SHLS NC  0850   76 85   30/ 14/ 17 1017.0R   6/10   5/10
CAPE LOOKOUT NC  0900   77      50/ 14/ 16 1017.5R
$$




USA.gov is the U.S. government's official web portal to all federal, state and local government web resources and services.